Home   Weather   Starnberg   Past weeks

Flag for Germany Past Weather in Starnberg, Bavaria, Germany — Yesterday and Last 2 Weeks

Now
45 °F

Passing clouds.


Feels Like: 39 °F
Forecast: 35 / 42 °F
Wind: 10 mph from South

Location: Landsberg

Current Time: Apr 25, 2017 at 4:58:12 am

Latest Report: Apr 25, 2017 at 3:20 am


Visibility: N/A

Pressure: 29.74 "Hg (27.68 "Hg at 590m altitude)

Humidity: 71%

Dew Point: 36 °F

Location of StarnbergLocation

Past Weather in Starnberg — Graph

°F

Starnberg Temperature Yesterday

Maximum temperature yesterday: 63 °F (at 6:20 pm)
Minimum temperature yesterday: 28 °F (at 3:20 am)
Average temperature yesterday: 45 °F

High & Low Weather Summary for the Past Weeks

 TemperatureHumidityPressure
High70 °F (Apr 10, 2:20 pm)100% (Apr 18, 6:15 am)30.51 "Hg (Apr 18, 6:15 am)
Low25 °F (Apr 20, 5:20 am)25% (Apr 24, 7:20 pm)29.77 "Hg (Apr 25, 2:20 am)
Average43 °F69%30.14 "Hg
* Reported Apr 10 2:20 am — Apr 25 2:20 am, Starnberg, Weather by CustomWeather, © 2017

Note: Actual official high and low records may vary slightly from our data, if they occured in-between our weather recording intervals... More about our weather records

Advertising

Starnberg Weather History for the Previous 24 Hours

Scroll right to see more
 ConditionsComfort  
Time TempWeatherWind HumidityBarometerVisibility
2:20 am
Tue, Apr 25
45 °FPassing clouds.9 mph76%29.77 "HgN/A
1:20 am45 °FPassing clouds.7 mph71%29.80 "HgN/A
12:20 am45 °FPassing clouds.8 mph71%29.80 "HgN/A
11:20 pm
Mon, Apr 24
45 °FPassing clouds.8 mph61%29.83 "HgN/A
10:20 pm45 °FPassing clouds.7 mph57%29.83 "HgN/A
9:20 pm54 °FPassing clouds.6 mph35%29.86 "HgN/A
8:20 pm57 °FPassing clouds.6 mph27%29.86 "HgN/A
7:20 pm61 °FPartly sunny.7 mph25%29.86 "HgN/A
6:20 pm63 °FScattered clouds.5 mph30%29.89 "HgN/A
5:20 pm61 °FScattered clouds.5 mph34%29.89 "HgN/A
4:20 pm61 °FScattered clouds.7 mph34%29.92 "HgN/A
3:20 pm57 °FPassing clouds.7 mph41%29.95 "HgN/A
2:20 pm55 °FPassing clouds.6 mph44%29.98 "HgN/A
1:20 pm54 °FPassing clouds.2 mph47%30.01 "HgN/A
12:20 pm52 °FPassing clouds.2 mph47%30.04 "HgN/A
11:20 am50 °FCool.2 mph54%30.04 "HgN/A
10:20 am46 °FPassing clouds.3 mph57%30.07 "HgN/A
9:20 am43 °FPassing clouds.8 mph57%30.07 "HgN/A
8:20 am39 °FPassing clouds.5 mph65%30.07 "HgN/A
7:20 am32 °FPassing clouds.5 mph69%30.07 "HgN/A
6:20 am28 °FPassing clouds.2 mph80%30.09 "HgN/A
5:20 am30 °FPassing clouds.3 mph75%30.09 "HgN/A
4:20 am28 °FPassing clouds.2 mph80%30.12 "HgN/A
Weather by CustomWeather, © 2017

See weather overviewHow to use our weather pages